2017-008DF

Last updated on Fri Mar 10 2017 00:15:03 GMT+0000 (Coordinated Universal Time)

1 42049U 17008DF 17068.62920864 .00001735 00000-0 79840-4 0 9992 2 42049 97.5112 130.2249 0008544 172.5397 187.5925 15.21667262 2010
UTC large
Height (km)
Speed (km/s)
/
Latitude / Longitude
Inclination (degrees)
Orbital Period (minutes)
Azimuth
Elevation
Range (km)
Doppler Factor

Next 0 passes for location: London (51.5072 / 0.1276)

Sorry there are no passes over London.
2017-008DF